Location: Pasarilla del Rebollar
(40.6790°N, 5.0062°W)
Time: 10:56:16
(UTC+00:00)

Cosmos 1375 Rocket - Pass Details

Date: 22 April 2026
Orbit: 949 x 1017 km, 65.8° (Epoch: 15 May)

Event Time Altitude Azimuth Distance (km) Brightness Sun altitude
Exits shadow 02:31:35 77° 164° (SSE) 1,021 4.4 -28.9°
Maximum altitude 02:31:58 81° 119° (ESE) 1,010 4.4 -28.8°
Drops below altitude 10° 02:38:31 10° 33° (NNE) 2,786 7.8 -28.0°
Sets 02:41:08 0° 32° (NNE) 3,747 8.8 -27.7°
